IZ5ILJ Weather Reports


time (UTC)temp
C
wind
direction
speed
KPH
gust
KPH
rain 1hr
cm
rain 24hr
cm
rain mn
cm
humidity
%
barometer
mb
20260507175630 20 270 3.2 6.4 0.00 0.00 0.00 46 1009.5
20260507174730 22 292 6.4 6.4 0.00 0.00 0.00 37 1009.4
20260507172930 22 292 6.4 6.4 0.00 0.00 0.00 37 1009.5
20260507172030 22 292 6.4 6.4 0.00 0.00 0.00 37 1009.3
20260507171130 22 292 6.4 6.4 0.00 0.00 0.00 37 1009.4
20260507170230 22 292 6.4 6.4 0.00 0.00 0.00 37 1009.3
20260507165333 22 292 6.4 6.4 0.00 0.00 0.00 37 1009.3
20260507164430 22 292 6.4 6.4 0.00 0.00 0.00 37 1009.3
20260507163530 22 292 6.4 6.4 0.00 0.00 0.00 37 1009.4
20260507162630 22 292 6.4 6.4 0.00 0.00 0.00 37 1009.4
20260507161730 22 292 6.4 6.4 0.00 0.00 0.00 37 1009.3
20260507160830 22 292 6.4 6.4 0.00 0.00 0.00 37 1009.5
20260507155930 22 292 6.4 6.4 0.00 0.00 0.00 37 1009.1
20260507155030 22 292 6.4 6.4 0.00 0.00 0.00 37 1009.2
20260507153230 22 292 6.4 6.4 0.00 0.00 0.00 37 1009.2
20260507152330 22 292 6.4 6.4 0.00 0.00 0.00 37 1009.4
20260507150530 22 308 6.4 8.0 0.00 0.00 0.00 37 1009.5
20260507145630 22 294 4.8 8.0 0.00 0.00 0.00 38 1009.3
20260507144730 22 292 6.4 8.0 0.00 0.00 0.00 39 1009.4
20260507143830 23 292 12.9 14.5 0.00 0.00 0.00 37 1009.7
20260507142033 23 292 12.9 14.5 0.00 0.00 0.00 37 1009.5
20260507141130 23 292 12.9 14.5 0.00 0.00 0.00 37 1009.6
20260507140230 23 292 12.9 14.5 0.00 0.00 0.00 37 1009.8
20260507135330 23 286 11.3 14.5 0.00 0.00 0.00 37 1009.7
20260507134430 24 270 6.4 11.3 0.00 0.00 0.00 34 1010.2
20260507133530 23 175 4.8 11.3 0.00 0.00 0.00 35 1010.2
20260507132630 23 130 4.8 8.0 0.00 0.00 0.00 34 1010.1
20260507131730 22 161 4.8 9.7 0.00 0.00 0.00 35 1010.3
20260507125930 22 82 4.8 11.3 0.00 0.00 0.00 35 1010.5
20260507125031 23 355 3.2 8.0 0.00 0.00 0.00 38 1010.3
20260507120324 20 292 12.9 16.1 0.00 0.00 0.00 48 1010.3
20260507115423 20 292 12.9 16.1 0.00 0.00 0.00 48 1010.7
20260507114524 20 310 9.7 16.1 0.00 0.00 0.00 48 1010.5
20260507113623 20 4 6.4 16.1 0.00 0.00 0.00 45 1010.8
20260507112725 21 315 6.4 16.1 0.00 0.00 0.00 44 1010.7
20260507105124 19 317 8.0 17.7 0.00 0.00 0.00 52 1011.2
20260507104223 19 284 6.4 12.9 0.00 0.00 0.00 51 1011.3
20260507103323 18 317 6.4 12.9 0.00 0.00 0.00 54 1011.3
20260507102423 19 350 8.0 14.5 0.00 0.00 0.00 51 1011.4
20260507101524 21 297 4.8 14.5 0.00 0.00 0.00 43 1011.4